Date String (YYYY-MM-DD hh:mm:ss) UTC,Instrument flags,Ambient pressure (hPa),Sample flow (lpm),Bypass flow (lpm),Sample temperature (°C),Ambient temperature (°C),ASC tube jacket temperature (°C),LED temperature (°C),Box temperature (°C),Sample RH (%),Span deviation,Mass concentration (μg/m³),Mass concentration (μg/m³),Mass concentration (μg/m³)
DateTimeUTC,F1_M11,P_M11,Q1_M11,Q2_M11,T1_M11,T2_M11,T3_M11,T4_M11,T5_M11,U1_M11,ZSPAN_M11,X0_M11,X2_M11,X1_M11
2022-10-22 12:00:00,,0813.6,5.02,0.00,28.1,26.6,00.0,37.0,29.9,09.1,0000.0,0009.36,0004.14,0003.68
2022-10-22 12:01:00,,0813.5,5.00,0.00,28.1,26.6,00.0,37.0,30.0,09.1,0000.0,0008.89,0004.00,0003.56
2022-10-22 12:02:00,,0813.5,5.00,0.00,28.1,26.6,00.0,37.0,30.0,09.1,0000.0,0009.17,0003.92,0003.49
2022-10-22 12:03:00,,0813.6,5.01,0.00,28.1,26.6,00.0,37.0,30.0,09.1,0000.0,0009.10,0003.81,0003.39
2022-10-22 12:04:00,,0813.5,5.00,0.00,28.1,26.6,00.0,37.0,30.0,09.0,0000.0,0009.18,0003.76,0003.36
2022-10-22 12:05:00,,0813.5,4.99,0.00,28.1,26.6,00.0,37.0,30.0,09.0,0000.0,0009.27,0003.70,0003.34
2022-10-22 12:06:00,,0813.5,5.02,0.00,28.1,26.6,00.0,37.0,29.9,09.0,0000.0,0009.02,0003.59,0003.27
2022-10-22 12:07:00,,0813.5,4.99,0.00,28.1,26.6,00.0,37.0,29.9,09.1,0000.0,0008.48,0003.54,0003.21
2022-10-22 12:08:00,,0813.5,5.00,0.00,28.1,26.6,00.0,37.0,29.9,09.1,0000.0,0008.04,0003.53,0003.17
2022-10-22 12:09:00,,0813.5,5.00,0.00,28.1,26.5,00.0,37.0,29.9,09.1,0000.0,0008.24,0003.54,0003.15
2022-10-22 12:10:00,,0813.5,5.00,0.00,28.1,26.6,00.0,37.0,29.9,09.1,0000.0,0008.95,0003.55,0003.15
2022-10-22 12:11:00,,0813.5,5.01,0.00,28.1,26.5,00.0,37.0,29.9,09.1,0000.0,0008.95,0003.53,0003.14
2022-10-22 12:12:00,,0813.5,4.99,0.00,28.1,26.5,00.0,37.0,29.9,09.0,0000.0,0008.95,0003.53,0003.13
2022-10-22 12:13:00,,0813.5,5.01,0.00,28.1,26.5,00.0,37.0,29.9,09.0,0000.0,0008.67,0003.53,0003.10
2022-10-22 12:14:00,,0813.5,4.99,0.00,28.1,26.6,00.0,37.0,30.0,08.9,0000.0,0008.62,0003.55,0003.09
2022-10-22 12:15:00,,0813.5,4.99,0.00,28.2,26.6,00.0,37.0,30.0,08.9,0000.0,0009.52,0003.53,0003.05
2022-10-22 12:16:00,,0813.5,5.03,0.00,28.2,26.7,00.0,37.0,30.1,08.9,0000.0,0009.19,0003.50,0003.00
2022-10-22 12:17:00,,0813.5,4.99,0.00,28.2,26.7,00.0,37.0,30.1,08.9,0000.0,0009.19,0003.50,0002.99
2022-10-22 12:18:00,,0813.5,4.99,0.00,28.2,26.7,00.0,37.0,30.1,09.0,0000.0,0009.25,0003.53,0003.01
2022-10-22 12:19:00,,0813.5,5.02,0.00,28.2,26.8,00.0,37.0,30.1,08.9,0000.0,0009.29,0003.56,0003.07
2022-10-22 12:20:00,,0813.5,4.99,0.00,28.2,26.8,00.0,37.0,30.1,08.8,0000.0,0009.89,0003.59,0003.14
2022-10-22 12:21:00,,0813.5,4.99,0.00,28.2,26.8,00.0,37.0,30.1,08.8,0000.0,0009.12,0003.61,0003.18
2022-10-22 12:22:00,,0813.5,5.00,0.00,28.2,26.8,00.0,37.0,30.2,08.7,0000.0,0008.98,0003.68,0003.23
2022-10-22 12:23:00,,0813.5,5.00,0.00,28.2,26.8,00.0,37.1,30.2,08.6,0000.0,0009.16,0003.74,0003.29
2022-10-22 12:24:00,,0813.6,5.00,0.00,28.3,26.8,00.0,37.1,30.2,08.6,0000.0,0009.10,0003.78,0003.37
2022-10-22 12:25:00,,0813.5,4.99,0.00,28.3,26.8,00.0,37.1,30.2,08.8,0000.0,0008.98,0003.80,0003.42
2022-10-22 12:26:00,,0813.5,5.02,0.00,28.3,26.8,00.0,37.1,30.2,09.0,0000.0,0008.11,0003.82,0003.44
2022-10-22 12:27:00,,0813.5,4.99,0.00,28.3,26.8,00.0,37.1,30.2,09.0,0000.0,0008.71,0003.84,0003.44
2022-10-22 12:28:00,,0813.5,5.00,0.00,28.3,26.8,00.0,37.1,30.2,08.9,0000.0,0009.31,0003.86,0003.45
2022-10-22 12:29:00,,0813.5,5.01,0.00,28.3,26.8,00.0,37.1,30.2,08.9,0000.0,0009.22,0003.84,0003.47
2022-10-22 12:30:00,,0813.5,5.00,0.00,28.3,26.8,00.0,37.1,30.2,08.9,0000.0,0009.26,0003.86,0003.49
2022-10-22 12:31:00,,0813.5,4.99,0.00,28.3,26.8,00.0,37.1,30.2,08.9,0000.0,0008.71,0003.85,0003.48
2022-10-22 12:32:00,,0813.5,5.00,0.00,28.3,26.9,00.0,37.1,30.2,08.9,0000.0,0008.67,0003.86,0003.48
2022-10-22 12:33:00,,0813.5,5.01,0.00,28.3,26.9,00.0,37.1,30.2,08.8,0000.0,0008.41,0003.82,0003.46
2022-10-22 12:34:00,,0813.5,4.99,0.00,28.3,26.9,00.0,37.1,30.2,08.8,0000.0,0008.28,0003.80,0003.44
2022-10-22 12:35:00,,0813.5,5.02,0.00,28.3,26.9,00.0,37.1,30.2,08.8,0000.0,0008.86,0003.79,0003.41
2022-10-22 12:36:00,,0813.5,4.99,0.00,28.3,26.9,00.0,37.1,30.2,08.7,0000.0,0009.39,0003.79,0003.41
2022-10-22 12:37:00,,0813.5,5.00,0.00,28.3,26.9,00.0,37.2,30.2,08.7,0000.0,0009.16,0003.78,0003.43
2022-10-22 12:38:00,,0813.5,5.01,0.00,28.3,26.9,00.0,37.2,30.3,08.7,0000.0,0008.43,0003.77,0003.46
2022-10-22 12:39:00,,0813.5,4.99,0.00,28.4,26.9,00.0,37.2,30.2,08.8,0000.0,0008.39,0003.77,0003.48
2022-10-22 12:40:00,,0813.4,4.99,0.00,28.4,26.9,00.0,37.2,30.2,08.8,0000.0,0008.57,0003.80,0003.49
2022-10-22 12:41:00,,0813.5,5.03,0.00,28.4,26.9,00.0,37.2,30.3,08.7,0000.0,0008.71,0003.79,0003.51
2022-10-22 12:42:00,,0813.5,4.99,0.00,28.4,26.9,00.0,37.2,30.3,08.7,0000.0,0008.75,0003.81,0003.52
2022-10-22 12:43:00,,0813.4,5.00,0.00,28.4,26.9,00.0,37.2,30.3,08.8,0000.0,0008.92,0003.86,0003.53
2022-10-22 12:44:00,,0813.4,5.01,0.00,28.4,26.9,00.0,37.2,30.3,08.7,0000.0,0009.77,0003.92,0003.55
2022-10-22 12:45:00,,0813.4,4.98,0.00,28.4,26.9,00.0,37.2,30.3,08.5,0000.0,0010.02,0003.97,0003.58
2022-10-22 12:46:00,,0813.5,5.01,0.00,28.4,26.9,00.0,37.2,30.3,08.6,0000.0,0009.55,0003.99,0003.60
2022-10-22 12:47:00,,0813.5,5.01,0.00,28.4,26.9,00.0,37.2,30.3,08.7,0000.0,0009.06,0004.01,0003.61
2022-10-22 12:48:00,,0813.5,4.99,0.00,28.4,27.0,00.0,37.2,30.3,08.7,0000.0,0009.13,0004.05,0003.63
2022-10-22 12:49:00,,0813.5,5.00,0.00,28.4,27.0,00.0,37.2,30.3,08.6,0000.0,0009.25,0004.11,0003.66
2022-10-22 12:50:00,,0813.4,5.02,0.00,28.4,27.0,00.0,37.2,30.3,08.7,0000.0,0009.66,0004.18,0003.69
2022-10-22 12:51:00,,0813.4,4.99,0.00,28.4,27.0,00.0,37.2,30.3,08.7,0000.0,0009.99,0004.19,0003.72
2022-10-22 12:52:00,,0813.4,4.99,0.00,28.4,27.0,00.0,37.3,30.3,08.7,0000.0,0009.86,0004.20,0003.74
2022-10-22 12:53:00,,0813.4,5.01,0.00,28.4,27.0,00.0,37.3,30.3,08.7,0000.0,0009.57,0004.23,0003.77
2022-10-22 12:54:00,,0813.3,5.00,0.00,28.5,27.0,00.0,37.3,30.3,08.7,0000.0,0009.48,0004.23,0003.80
2022-10-22 12:55:00,,0813.3,4.99,0.00,28.5,27.0,00.0,37.3,30.3,08.7,0000.0,0008.91,0004.26,0003.84
2022-10-22 12:56:00,,0813.3,5.02,0.00,28.5,27.0,00.0,37.3,30.3,08.6,0000.0,0008.56,0004.25,0003.86
2022-10-22 12:57:00,,0813.3,4.99,0.00,28.5,27.0,00.0,37.3,30.4,08.6,0000.0,0008.74,0004.27,0003.89
2022-10-22 12:58:00,,0813.3,4.99,0.00,28.5,27.0,00.0,37.3,30.3,08.5,0000.0,0009.11,0004.30,0003.91
2022-10-22 12:59:00,,0813.3,5.02,0.00,28.5,27.1,00.0,37.3,30.4,08.5,0000.0,0009.16,0004.33,0003.94
